Weather in Loukhi

Russia / Republic of Karelia     66°04′28″N   33°02′38″E
temp.,
°C
wind,
m/s
gust,
m/s
humid.,
%
clouds,
%
prec.,
mm/h
press.,
hPa
HPBL,
m
28 july, wed
wed2800:00+14ssw3559100 0.0 101683
03:00+13sw3106387 0.0 1014183
06:00+14wsw287773 0.4 1012252
09:00+22wnw47474 0.4 1010782
12:00+23n454627 0.0 10091594
15:00+24nne354019 0.0 10092162
18:00+22ne43511 0.0 1008854
21:00+17ese377238 0.1 1008413
29 july, thu
thu2900:00+12ese278670 0.1 1008192
03:00+10ese379563 0.1 1007237
06:00+11ese3887100 0.3 1006337
09:00+13ese3580100 0.9 1005646
12:00+11ese4989100 1.8 1003618
15:00+9e4994100 4.3 1003394
18:00+9ese4892100 0.1 1002398
21:00+9e399491 0.1 1002394
30 july, fri
fri3000:00+9e3993100 0.0 1002430
03:00+9e3989100 0.0 1000448
06:00+9e389181 0.0 1000388
09:00+11e4986100 0.0 999630
12:00+13e5871100 0.0 998754
15:00+11ese51088100 0.5 997555
18:00+10ese51197100 1.7 996480
21:00+11ese41196100 3.3 995470
31 july, sat
sat3100:00+10e3797100 0.7 994350
03:00+10ene2499100 2.2 994192
06:00+10nne1299100 1.3 993119
09:00+10nne1399100 3.1 994172
12:00+12n1294100 0.1 994390
15:00+13n2288100 0.1 995518
18:00+14nnw1178100 0.0 996599
21:00+13nnw1182100 0.0 99728
1 august, sun
sun100:00+12ne2286100 0.0 99745
03:00+10ene119470 0.0 99815
06:00+12ese1186100 0.0 99899
09:00+13e1281100 0.0 999268
12:00+15ese2374100 0.0 999570
15:00+15ene2276100 0.0 999463
18:00+15ene2374100 0.0 999480
21:00+13ene2488100 0.0 99997